Location: Newark
(3.1333°N, 101.7000°E)
Time: 04:17:12
(UTC+00:00)

Envisat - Visible Passes

Search period start: 25 September 2020 00:00
Search period end: 05 October 2020 00:00
Orbit: 764 x 766 km, 98.1° (Epoch: 24 September)

Date Brightness Start Highest point End Pass type
(mag) Time Alt. Az. Time Alt. Az. Time Alt. Az.
25 Sep 5.8 22:05:42 10° NE 22:09:24 20° ESE 22:13:05 10° SSE visible
27 Sep 5.7 11:40:17 10° SSW 11:44:15 23° WSW 11:48:13 10° NW visible
27 Sep 4.5 22:30:01 10° NNE 22:34:46 42° ESE 22:39:32 10° S visible
28 Sep 6.1 21:55:16 10° ENE 21:58:04 15° ESE 22:00:51 10° SE visible
29 Sep 6.5 12:08:30 10° WSW 12:09:37 11° WSW 12:10:43 10° W visible
30 Sep 5.2 11:28:28 10° SSW 11:32:55 31° WSW 11:37:22 10° NW visible
30 Sep 5.1 22:19:01 10° NE 22:23:26 31° ESE 22:27:52 10° SSE visible
01 Oct 6.5 21:45:52 10° E 21:46:44 10° ESE 21:47:37 10° ESE visible
02 Oct 6.2 11:55:26 10° SW 11:58:17 15° WSW 12:01:08 10° WNW visible
03 Oct 5.7 22:08:10 10° NE 22:12:06 23° ESE 22:16:02 10° SSE visible
